W5MAI Weather Reports


Display with metric or nautical units.
time (UTC)temp
F
wind
direction
speed
MPH
gust
MPH
rain 1hr
in
rain 24hr
in
rain mn
in
humidity
%
barometer
mb
20260504034325 66 153 3.0 4.0 0.00 0.00 0.00 64 1019.4
20260504033359 66 170 3.0 7.0 0.00 0.00 0.00 64 1019.4
20260504032416 65 159 3.0 6.0 0.00 0.00 0.00 64 1019.4
20260504031343 63 174 3.0 6.0 0.00 0.00 0.00 68 1019.3
20260504030358 61 167 0.0 1.0 0.00 0.00 0.00 72 1019.3
20260504025421 61 167 0.0 1.0 0.00 0.00 0.00 73 1019.2
20260504024342 62 167 0.0 0.0 0.00 0.00 0.00 72 1019.1
20260504023416 62 167 0.0 0.0 0.00 0.00 0.00 70 1019.2
20260504022420 63 167 0.0 0.0 0.00 0.00 0.00 69 1019.1
20260504014356 67 167 0.0 1.0 0.00 0.00 0.00 58 1018.8
20260504013422 69 167 0.0 1.0 0.00 0.00 0.00 54 1018.7
20260504012345 70 167 0.0 3.0 0.00 0.00 0.00 52 1018.7
20260504011415 71 171 1.0 3.0 0.00 0.00 0.00 49 1018.6
20260504010423 72 167 2.0 3.0 0.00 0.00 0.00 47 1018.5
20260504004338 73 161 2.0 5.0 0.00 0.00 0.00 43 1018.4
20260504003407 74 155 2.0 8.0 0.00 0.00 0.00 42 1018.4
20260504002323 75 129 2.0 8.0 0.00 0.00 0.00 42 1018.7
20260504000346 75 139 4.0 9.0 0.00 0.00 0.00 43 1018.8
20260503235413 76 115 4.0 9.0 0.00 0.00 0.00 43 1019.1
20260503234330 76 153 2.0 11.0 0.00 0.00 0.00 41 1019.0
20260503233405 76 155 5.0 8.0 0.00 0.00 0.00 43 1019.1
20260503232416 76 200 3.0 12.0 0.00 0.00 0.00 42 1019.2
20260503231338 77 209 4.0 10.0 0.00 0.00 0.00 41 1019.0
20260503230403 77 161 5.0 9.0 0.00 0.00 0.00 42 1019.2
20260503225330 77 161 4.0 11.0 0.00 0.00 0.00 40 1019.0
20260503224358 77 155 4.0 13.0 0.00 0.00 0.00 43 1019.2
20260503223421 77 115 5.0 14.0 0.00 0.00 0.00 42 1019.2
20260503222348 77 151 6.0 10.0 0.00 0.00 0.00 40 1019.4
20260503221407 77 163 3.0 9.0 0.00 0.00 0.00 40 1019.5
20260503220334 77 148 3.0 9.0 0.00 0.00 0.00 40 1019.6
20260503215348 77 181 5.0 10.0 0.00 0.00 0.00 41 1019.8
20260503214415 77 152 3.0 11.0 0.00 0.00 0.00 38 1020.2
20260503213344 77 156 4.0 11.0 0.00 0.00 0.00 40 1020.3
20260503212403 77 173 6.0 16.0 0.00 0.00 0.00 39 1020.4
20260503211331 77 131 4.0 11.0 0.00 0.00 0.00 39 1020.4
20260503210355 77 176 5.0 9.0 0.00 0.00 0.00 39 1020.8
20260503205323 77 235 4.0 11.0 0.00 0.00 0.00 41 1020.9
20260503203351 77 173 6.0 9.0 0.00 0.00 0.00 41 1021.3
20260503202418 77 255 3.0 10.0 0.00 0.00 0.00 41 1021.5
20260503201327 77 183 5.0 10.0 0.00 0.00 0.00 41 1021.7
20260503200358 77 225 5.0 12.0 0.00 0.00 0.00 43 1021.8
20260503195419 76 124 6.0 10.0 0.00 0.00 0.00 40 1021.8
20260503193342 77 104 5.0 11.0 0.00 0.00 0.00 44 1022.2
20260503192358 76 119 4.0 13.0 0.00 0.00 0.00 44 1022.3
20260503191417 75 230 6.0 12.0 0.00 0.00 0.00 38 1022.5
20260503185344 75 246 6.0 12.0 0.00 0.00 0.00 44 1022.7
20260503184350 75 226 7.0 13.0 0.00 0.00 0.00 44 1023.2
20260503183323 75 149 5.0 10.0 0.00 0.00 0.00 43 1023.2
20260503182351 75 212 6.0 12.0 0.00 0.00 0.00 41 1023.6
20260503181417 75 76 4.0 14.0 0.00 0.00 0.00 39 1023.6
20260503174349 74 167 8.0 18.0 0.00 0.00 0.00 41 1024.1
20260503173420 74 146 6.0 10.0 0.00 0.00 0.00 42 1024.3
20260503172349 74 213 6.0 11.0 0.00 0.00 0.00 43 1024.5
20260503171417 74 221 5.0 12.0 0.00 0.00 0.00 44 1024.6
20260503170328 73 184 5.0 12.0 0.00 0.00 0.00 43 1024.6
20260503150418 66 310 0.0 2.0 0.00 0.00 0.00 71 1025.2
20260503131347 53 78 0.0 0.0 0.00 0.00 0.00 95 1024.7
20260503130355 52 78 0.0 0.0 0.00 0.00 0.00 96 1024.5
20260503110409 45 76 0.0 0.0 0.00 0.00 0.00 93 1023.8
20260503090323 47 76 0.0 0.0 0.00 0.00 0.00 92 1023.1
20260503081343 48 76 0.0 0.0 0.00 0.00 0.00 92 1023.4
20260503080406 48 76 0.0 0.0 0.00 0.00 0.00 92 1023.5
20260503072356 49 76 0.0 0.0 0.00 0.00 0.00 91 1023.8
20260503071420 49 76 0.0 0.0 0.00 0.00 0.00 92 1023.9
20260503070343 49 76 0.0 0.0 0.00 0.00 0.00 91 1024.0
20260503054337 50 76 0.0 0.0 0.00 0.00 0.00 90 1024.0
20260503053351 50 76 0.0 0.0 0.00 0.00 0.00 90 1024.0
20260503052334 51 76 0.0 0.0 0.00 0.00 0.00 90 1023.9
20260503051338 51 76 0.0 0.0 0.00 0.00 0.00 90 1024.0
20260503050329 51 76 0.0 0.0 0.00 0.00 0.00 89 1023.9
20260503045355 51 76 0.0 0.0 0.00 0.00 0.00 89 1023.8
20260503044415 52 76 0.0 0.0 0.00 0.00 0.00 89 1023.8
20260503043339 52 76 0.0 0.0 0.00 0.00 0.00 88 1023.8
20260503042345 52 76 0.0 0.0 0.00 0.00 0.00 88 1023.9
20260503041422 53 76 0.0 0.0 0.00 0.00 0.00 88 1024.0
20260503040335 53 76 0.0 0.0 0.00 0.00 0.00 87 1023.8
20260503035407 53 76 0.0 0.0 0.00 0.00 0.00 86 1023.6